LogoCoinalyze
    Ad-Free Version Home Markten Financieringspercentages
    Futures data
    • Aggregated data (Munten)
    • Individuele grafieken
    • Globale grafieken
    Meldingen
    TA
    Bitcoin Ethereum BNB Ripple Tron ZCash Dogecoin Monero UNUS SED LEO Chainlink Cardano Stellar Lumens Bitcoin Cash Litecoin Hedera Cronos Polkadot Ethereum Classic Algorand Cosmos Quant VeChain Dash Bitcoin SV BitTorrent Terra Tezos Decred Iota The Graph THETA MultiversX Decentraland NEO Chiliz Golem Basic Attention Token Horizen Qtum 0x DigiByte Beam RIF Token FTX Token FUNToken Holo aelf Ontology Zilliqa Nano Enjin Coin Ravencoin Mask Network Verge Siacoin Status WINk Waves IoTeX iExec RLC Power Ledger Steem Kyber Network Crystal Lisk Ark Ardor WOO Network IOST WAX Icon Storj Loopring Wanchain Bitcoin Diamond Augur AdEx Bitcoin Gold OmiseGO NEM MonaCoin BitShares Ren Komodo V Systems Nuls Mithril SOLVE EOS Aion Maker Nebulas HedgeTrade Bread Fetch.ai TomoChain Polygon Fantom Waltonchain GXChain Bytom Metaverse ETP MaidSafeCoin QASH
    Rangschikken op:
    Meer
    • API
    • Candlestick-patronen
    • Doneer
    • Contact
    • Sitemap
    • Privacy Policy
    • Disclaimer
    • Theme:
    Nederlands
    • English
    • Français
    • Русский
    • Deutsch
    • Türkçe
    • Português (BR)
    • Español
    • 한국어
    • 简体中文
    • 日本語
     
    Aanmelden / Registreren
    Markets/ Pepe/ PEPE naar TRY/ PEPETRY Binance
    Trades
    WL
    Chat
    Stats
    Nieuws
    ⦷
    AAA
    0.00018048 23378521.00000000 14:59:28
    0.00018045 169626.00000000 14:59:28
    0.00018026 122830400.00000000 14:59:24
    0.00018067 83050.00000000 14:59:20
    0.00018068 92301856.00000000 14:59:18
    0.00018068 52189400.00000000 14:59:18
    0.00018067 83087.00000000 14:59:18
    0.00018066 52189400.00000000 14:59:18
    0.00018061 169473.00000000 14:59:18
    0.00018065 84.00000000 14:59:17
    0.00018065 71480400.00000000 14:59:17
    0.00018065 48314078.00000000 14:59:17
    0.00018063 52355615.00000000 14:59:17
    0.00018061 83112.00000000 14:59:17
    0.00018060 52189400.00000000 14:59:17
    0.00018059 83112.00000000 14:59:17
    0.00018057 52272519.00000000 14:59:17
    0.00018064 39053241.00000000 14:59:14
    0.00018070 32101863.00000000 14:59:14
    0.00018069 83059.00000000 14:59:14
    0.00018067 52189400.00000000 14:59:14
    0.00018042 17560050.00000000 14:59:14
    0.00018043 83041.00000000 14:59:14
    0.00018044 52189400.00000000 14:59:14
    0.00018045 1492828041.00000000 14:59:14
    0.00018046 52272441.00000000 14:59:14
    0.00018047 83041.00000000 14:59:14
    0.00018049 83041.00000000 14:59:14
    0.00018050 52189400.00000000 14:59:14
    0.00018051 83006.00000000 14:59:14
    0.00018052 52189400.00000000 14:59:14
    0.00018053 48314041.00000000 14:59:14
    0.00018055 52272443.00000000 14:59:14
    0.00018056 42749810.00000000 14:59:14
    0.00018057 83043.00000000 14:59:14
    0.00018059 169428.00000000 14:59:14
    0.00018065 34.00000000 14:59:14
    0.00018065 29299400.00000000 14:59:14
    0.00018055 4439033.00000000 14:59:12
    0.00018063 83006.00000000 14:59:11
    0.00018064 42749810.00000000 14:59:11
    0.00018065 83006.00000000 14:59:11
    0.00018069 5481100.00000000 14:59:11
    0.00018073 169323.00000000 14:59:10
    0.00018074 50210600.00000000 14:59:10
    0.00018073 52189400.00000000 14:59:10
    0.00018065 74567200.00000000 14:59:08
    0.00018065 43.00000000 14:59:08
    0.00018065 74567200.00000000 14:59:08
    0.00018063 169410.00000000 14:59:08
    0.00018067 33098944.00000000 14:59:05
    0.00018074 120166206.00000000 14:59:05
    0.00018073 42749810.00000000 14:59:05
    0.00018072 57670579.00000000 14:59:05
    0.00018070 52189400.00000000 14:59:05
    0.00018068 169389.00000000 14:59:05
    0.00018067 52189400.00000000 14:59:05
    0.00018060 32.00000000 14:59:04
    0.00018060 103601300.00000000 14:59:04
    0.00018061 82997.00000000 14:59:04
    0.00018062 82963.00000000 14:59:04
    0.00018063 82997.00000000 14:59:04
    0.00018065 43.00000000 14:59:04
    0.00018065 74567200.00000000 14:59:04
    0.00018076 15000000.00000000 14:59:03
    0.00018086 82889.00000000 14:59:02
    0.00018087 82889.00000000 14:59:02
    0.00018100 198709229.00000000 14:59:01
    0.00018098 52189400.00000000 14:59:01
    0.00018084 553189.00000000 14:59:00
    0.00018095 72.00000000 14:58:59
    0.00018095 115775100.00000000 14:58:59
    0.00018103 6774215.00000000 14:58:58
    0.00018099 66448752.00000000 14:58:57
    0.00018110 21081837.00000000 14:58:54
    0.00018109 82869.00000000 14:58:54
    0.00018107 52189400.00000000 14:58:54
    0.00018114 16779577.00000000 14:58:53
    0.00018113 57753464.00000000 14:58:53
    0.00018111 332862.00000000 14:58:53
    0.00018110 52189400.00000000 14:58:53
    0.00018109 169035.00000000 14:58:53
    0.00018108 52189400.00000000 14:58:53
    0.00018100 582939445.00000000 14:58:52
    0.00018100 3521000.00000000 14:58:52
    0.00018099 112714.00000000 14:58:51
    0.00018099 56360.00000000 14:58:50
    0.00018095 56379.00000000 14:58:48
    0.00018099 169000.00000000 14:58:48
    0.00018076 554385.00000000 14:58:46
    0.00018079 17763815.00000000 14:58:46
    0.00018077 8826855.00000000 14:58:42
    0.00018076 52189400.00000000 14:58:42
    0.00018075 83059.00000000 14:58:42
    0.00018074 52189400.00000000 14:58:42
    0.00018073 83059.00000000 14:58:42
    0.00018072 52189400.00000000 14:58:42
    0.00018071 83059.00000000 14:58:42
    0.00018070 52189400.00000000 14:58:42
    0.00018075 5561735.00000000 14:58:39
    Afmelden
    AAA
    Help
    🙂 🤣 😎 🤗 😛 😉 😜 🤑 🤔 😑 😴 😕 🙃 😲 😇 🙁 😢 😬 😟 😠 🕺 🏃 💪 ✌ 👌 👍 👎 👏 👋 🤝 🍺 🍻 🐋 🐟 🦈 🗽 🚄 ✈ 🛑 🚀 🏦 🌚 ⭐ 🌞 ⚡ 🏆 💰 💲 🔨 ❓ ❗ 💯 🔶 🏁
    ☺
    Aanmelden of Registreren en chat
    24 Uur
    Verandering
    +10.06%
    Volume
    808,540,541,903
    Hoog
    0.00018114
    Laag
    0.00016213
    7 Dagen
    Verandering
    -2.60%
    Volume
    5,905,855,078,834
    Hoog
    0.00019297
    Laag
    0.00016213
    30 Dagen
    Verandering
    +31.14%
    Volume
    38,168,814,690,865
    Hoog
    0.00021642
    Laag
    0.00012111
    DOGE, SHIB, PEPE, or Something Else: Which Meme Coin Can Make History in September? (3 AIs Weigh In)
    "DOGE remains the most likely to record the largest move in dollar terms and lead the entire sector," ChatGPT stated.
    cryptopotato.com
    Sept 3, 2026 00:41
    Pepe price rallies 25% as whale demand and futures interest surge
    Key takeaways Pepe has gained 25% this week, including a combined 22% advance over the previous two days. Seven whale transactions worth more than $1 million each occurred Thursday, the highest...
    coinjournal.net
    Aug 21, 2026 08:41
    PEPE Supply on Exchanges Just Took a Massive Hit – What’s Next?
    A drop in PEPE exchange balances has added to bullish expectations despite muted trader interest.
    cryptopotato.com
    Aug 6, 2026 20:02
    PEPE Exchange Outflows Hit Nearly 2-Year High as Whales Accumulate
    Pepe (PEPE) recorded its largest single-day exchange outflow since November 2024, with 4.54 trillion tokens leaving trading platforms, signaling that holders are moving supply away from immediate...
    beincrypto.com
    Aug 6, 2026 04:57
    Meme Coin Based on White House Shooter Conspiracy Rallies 320%
    $HENRY surged 300% after a 2023 Pepe tweet appeared to name the White House shooter, fueling a viral time-travel meme. The post Meme Coin Based on White House Shooter Conspiracy Rallies 320%...
    beincrypto.com
    Apr 27, 2026 16:11
    PEPE surges 4% as market sentiment improves, eyes Key resistance breakout
    Key takeaways Pepe extends gains on Wednesday, stretching its rally from the 50-day EMA. Derivatives data show heightened retail activity as risk-on sentiment returns to the market. Pepe (PEPE) is...
    coinjournal.net
    Apr 22, 2026 11:44
    Why The PEPE Price Could Stage A 55X Rally To Reach New $0.0001 ATH
    The PEPE price has now started to edge back into bullish conversations after the recent inflows into the crypto market. The last time PEPE’s weekly chart printed the kind of structure now...
    newsbtc.com
    Apr 21, 2026 15:30
    Pepe (PEPE) surges 9%, drawing interest from whales
    Key takeaways PEPE is up 9% in the last 24 hours, making it one of the best performers among the top 50 cryptocurrencies by market cap. The rally comes amid renewed interest from whales and retail...
    coinjournal.net
    Apr 16, 2026 07:40
    Murad Says SPX6900 (SPX) Is Primed for a Rally — Is He Right This Time?
    Crypto influencer Murad Mahmudov claims SPX6900 (SPX) is stabilizing at the same market cap level where Dogecoin (DOGE) and Pepe (PEPE) consolidated before their explosive rallies. The...
    beincrypto.com
    Apr 5, 2026 21:36
    The Shiba Inu Of This Cycle: Analyst Shares Why It Is Better To Buy PEPE Now
    In the bull market cycle of 2021-2022, the Shiba Inu meme coin made waves in a way that changed the face of meme coins forever. This came after Dogecoin’s initial 36,000% rally, and Shiba Inu...
    newsbtc.com
    Apr 4, 2026 07:30
    PEPE Explodes by 18% Amid Altcoin Rally, BTC Tapped $74K: Market Watch
    The frog-themed meme coin is today's biggest gainer, followed by TAO, DOT, and BONK.
    cryptopotato.com
    Mar 16, 2026 10:56
    Should PEPE traders brace for volatility as short squeeze potential builds?
    The memecoin market has seen its collective market capitalization drop by 48% over the past year, and 6.9% over the past month, according to CoinMarketCap. According to Glassnode, the memecoin...
    ambcrypto.com
    Mar 7, 2026 18:00
    Typ de opdracht simpelweg in de chat. Vervang nick1 door de echte nick
    • /ignore nick1 Negeer een chatgebruiker
    • /unignore nick1 Een chatgebruiker niet meer negeren
    • /ignorelist Toon chatgebruikers die je negeert